Location: Clyde
(45.1830°S, 169.3170°E)
Time: 18:52:49
(UTC+13:00)

USA 234 - Pass Details

Date: 24 January 2019
Orbit: 1102 x 1106 km, 123.0° (Epoch: 14 February)

Event Time Altitude Azimuth Distance (km) Brightness Sun altitude
Rises 21:47:18 0° 129° (SE) 3,952 6.0 -4.6°
Reaches altitude 10° 21:49:50 10° 132° (SE) 2,992 5.4 -5.0°
Maximum altitude 21:56:18 60° 209° (SSW) 1,265 4.0 -5.9°
Drops below altitude 10° 22:02:45 10° 287° (WNW) 2,979 6.1 -6.8°
Sets 22:05:16 0° 290° (WNW) 3,933 6.7 -7.2°
